#timestamp,LO_Frequency,Hit,StdDev 
1657436415.8,286046997.7,N
1657436435.7,286046996.9,N
1657436455.5,286046998.6,N
1657436475.4,286046998.4,N
1657436495.2,286047000.9,N
1657436515.0,286047004.4,N
1657436515.9,286047004.4,N
1657436535.8,286047003.5,N
1657436555.6,286047006.4,N
1657436575.5,286047008.4,N
1657436595.3,286047008.4,N
1657436615.1,286047008.9,N
1657436635.9,286047008.5,N
1657436655.7,286047009.0,N
1657436675.5,286047006.2,N
1657436695.4,286047005.2,N
1657436715.2,286047006.5,N
1657436735.1,286047005.5,N
1657436736.0,286047005.5,N
1657436755.8,286047005.4,N
1657436775.6,286047003.8,N
1657436795.5,286047003.1,N
1657436815.3,286047003.5,N
1657436835.1,286047003.7,N
1657436855.9,286047001.7,N
1657436875.7,286047003.5,N
1657436895.6,286047003.1,N
1657436915.4,286047005.4,N
1657436935.2,286047003.4,N
1657436955.1,286047003.1,N
1657436956.0,286047003.1,N
1657436975.8,286047005.9,N
1657436995.6,286047001.3,N
1657437015.5,286047000.2,N
1657437035.3,286047002.8,N
1657437055.2,286047001.3,N
1657437075.9,286047003.7,N
1657437095.7,286047005.6,N
1657437115.6,286047005.1,N
1657437135.4,286047005.9,N
1657437155.2,286047002.9,N
1657437175.1,286047005.0,N
1657437176.0,286047005.0,N
1657437195.8,286047003.2,N
1657437215.7,286047005.3,Y
1657437235.5,286046998.8,P
1657437255.3,286046995.0,N
1657437275.2,286046997.2,N
1657437295.0,286046998.7,N
1657437295.9,286046998.7,N
1657437315.7,286046998.6,N
1657437335.6,286046998.3,N
1657437355.4,286047000.7,N
1657437375.3,286046998.4,N
1657437395.1,286046995.1,N
1657437396.0,286046995.1,N
1657437415.8,286046997.9,N
1657437435.7,286046995.7,N
1657437455.5,286046996.3,N
1657437475.3,286046995.2,N
1657437495.2,286046995.0,N
1657437515.0,286046997.5,N
1657437515.9,286046997.5,N
1657437535.8,286046999.2,N
1657437555.6,286046999.5,N
1657437575.4,286046999.1,N
1657437595.3,286046998.9,N
1657437615.1,286046999.1,N
1657437635.8,286046997.1,N
1657437655.7,286046999.0,N
1657437675.5,286046997.8,N
1657437695.4,286046995.2,N
1657437715.2,286046993.9,Y
1657437735.0,286046997.0,P
1657437735.9,286046997.0,P
1657437755.8,286046996.9,P
1657437775.6,286046995.4,Y
1657437795.5,286047000.6,P
1657437815.3,286047002.7,N
1657437835.1,286047000.1,N
1657437855.9,286047002.1,N
1657437875.7,286047004.4,N
1657437895.5,286047001.7,N
1657437915.4,286047002.0,N
1657437935.2,286046998.2,N
1657437955.1,286047002.3,N
1657437956.0,286047002.3,N
1657437975.8,286047001.9,N
1657437995.6,286047001.6,N
1657438015.5,286047002.1,N
1657438035.3,286047004.2,N
1657438055.2,286047004.7,N
1657438075.9,286047005.6,N
1657438095.7,286047005.8,N
1657438115.6,286047005.7,N
1657438135.4,286047005.9,N
1657438155.3,286047003.0,N
1657438175.1,286047004.7,N
1657438176.0,286047004.7,N
1657438195.8,286047006.0,N
1657438215.7,286047000.2,N
1657438235.5,286047002.0,N
1657438255.3,286047001.6,N
1657438275.2,286047001.2,N
1657438295.0,286047000.7,N
1657438295.9,286047000.7,N
1657438315.8,286047002.1,N
1657438335.6,286047002.4,N
1657438355.4,286047000.0,N
1657438375.3,286047000.6,N
1657438395.1,286047001.2,N
1657438415.8,286047000.4,N
1657438435.7,286047003.7,N
1657438455.5,286047007.0,Y
1657438475.4,286047001.4,P
1657438495.2,286047003.3,P
1657438515.0,286047005.2,P
1657438515.9,286047005.2,Y
1657438535.8,286047001.2,P
1657438555.6,286046998.9,N
1657438575.4,286046998.4,N
1657438595.3,286047000.0,N
1657438615.1,286047001.6,N
1657438635.9,286046999.7,N
1657438655.7,286046998.5,N
1657438675.5,286046998.6,N
1657438695.4,286046998.1,N
1657438715.2,286046998.4,N
1657438735.0,286047000.5,N
1657438735.9,286047000.5,N
1657438755.8,286046998.6,N
1657438775.6,286046999.1,N
1657438795.4,286046999.0,N
1657438815.3,286046998.5,N
1657438835.1,286046998.4,N
1657438855.9,286046998.2,N
1657438875.7,286046999.0,N
1657438895.5,286046999.3,N
1657438915.4,286046997.1,N
1657438935.2,286046998.0,N
1657438955.0,286047000.8,N
1657438955.9,286047000.8,N
1657438975.8,286046999.9,N
1657438995.6,286047000.6,N
1657439015.5,286046999.3,N
1657439035.3,286047000.2,N
1657439055.1,286047000.4,N
1657439075.9,286047002.8,N
1657439095.7,286047002.2,N
1657439115.5,286047001.2,N
1657439135.4,286047000.7,N
1657439155.2,286047002.5,N
1657439175.1,286047005.9,Y
1657439176.0,286047005.9,P
1657439195.8,286047003.5,N
1657439215.6,286047002.9,N
1657439235.5,286047004.2,N
1657439255.3,286047000.6,N
1657439275.1,286047002.2,N
1657439295.9,286047002.0,N
1657439315.7,286047004.1,N
1657439335.6,286047005.9,Y
1657439355.4,286047000.2,P
1657439375.2,286046999.7,N
1657439395.1,286047002.3,N
1657439396.0,286047002.3,N
1657439415.8,286047002.1,N
1657439435.6,286047000.3,N
1657439455.5,286046998.4,N
1657439475.3,286046999.0,N
1657439495.2,286046998.5,N
1657439515.9,286046998.5,N
1657439535.7,286047000.5,N
1657439555.6,286047001.0,N
1657439575.4,286046995.0,Y
1657439595.3,286046997.9,P
1657439615.1,286046997.6,N
1657439616.0,286046997.6,N
1657439635.8,286046999.5,N
1657439655.7,286046996.3,Y
1657439675.5,286046996.1,P
1657439695.4,286046994.9,P
1657439715.2,286046998.0,N
1657439735.0,286046999.2,N
1657439735.9,286046999.2,N
1657439755.8,286047001.2,N
1657439775.6,286047000.4,N
1657439795.4,286047002.7,N
1657439815.3,286047002.5,N
1657439835.1,286047002.3,N
1657439855.9,286047001.6,N
1657439875.7,286047002.0,N
1657439895.5,286047003.1,N
1657439915.4,286047004.1,N
1657439935.2,286047005.7,N
1657439955.0,286047003.3,N
1657439956.0,286047003.3,N
1657439975.8,286047002.1,N
1657440025.7,286047002.8,E
